CW1084 Weather Reports


Display with metric or nautical units.
time (UTC)temp
F
wind
direction
speed
MPH
gust
MPH
rain 1hr
in
rain 24hr
in
rain mn
in
humidity
%
barometer
mb
20190519091019 64 115 1.0 7.0 0.00 0.01 0.01 93 1016.0
20190519090505 64 121 0.0 5.0 0.00 0.01 0.01 93 1016.0
20190519090000 64 124 0.0 3.0 0.00 0.01 0.01 93 1016.1
20190519085521 65 125 0.0 4.0 0.00 0.01 0.01 93 1016.1
20190519085021 65 126 1.0 5.0 0.00 0.01 0.01 93 1016.1
20190519084519 65 105 1.0 5.0 0.00 0.01 0.01 93 1016.1
20190519084010 65 88 0.0 5.0 0.00 0.01 0.01 93 1016.1
20190519083524 65 84 0.0 3.0 0.00 0.01 0.01 92 1016.1
20190519083028 65 84 0.0 3.0 0.00 0.01 0.01 92 1016.2
20190519082507 65 84 0.0 5.0 0.00 0.01 0.01 92 1016.1
20190519082007 65 84 0.0 5.0 0.00 0.01 0.01 93 1016.1
20190519081506 65 84 0.0 3.0 0.00 0.01 0.01 92 1016.1
20190519080951 65 84 0.0 7.0 0.00 0.01 0.01 92 1016.2
20190519080509 65 84 0.0 7.0 0.00 0.01 0.01 92 1016.3
20190519075936 65 84 0.0 3.0 0.00 0.01 0.01 92 1016.3
20190519075444 66 84 0.0 5.0 0.00 0.01 0.01 92 1016.3
20190519074943 66 82 0.0 6.0 0.01 0.01 0.01 92 1016.3
20190519074506 66 86 0.0 6.0 0.01 0.01 0.01 92 1016.4
20190519073953 66 86 0.0 4.0 0.01 0.01 0.01 92 1016.5
20190519073506 66 69 0.0 4.0 0.01 0.01 0.01 92 1016.5
20190519073003 66 32 0.0 5.0 0.01 0.01 0.01 92 1016.4
20190519072448 66 29 0.0 5.0 0.01 0.01 0.01 92 1016.5
20190519071946 66 123 0.0 0.0 0.01 0.01 0.01 92 1016.5
20190519071442 66 123 0.0 0.0 0.01 0.01 0.01 92 1016.4
20190519070942 66 123 0.0 0.0 0.01 0.01 0.01 92 1016.3
20190519070441 66 123 0.0 0.0 0.01 0.01 0.01 92 1016.3
20190519065953 66 123 0.0 0.0 0.01 0.01 0.01 92 1016.3
20190519065454 66 123 0.0 0.0 0.01 0.01 0.01 92 1016.3
20190519064950 66 123 0.0 0.0 0.00 0.00 0.01 92 1016.3
20190519064454 66 123 0.0 1.0 0.00 0.00 0.00 92 1016.3
20190519063949 66 123 0.0 5.0 0.00 0.00 0.00 92 1016.1
20190519063428 66 124 2.0 9.0 0.00 0.00 0.00 92 1015.9
20190519062942 66 114 2.0 9.0 0.00 0.00 0.00 92 1015.5
20190519062434 66 123 1.0 5.0 0.00 0.00 0.00 92 1015.7
20190519061930 66 123 1.0 5.0 0.00 0.00 0.00 92 1015.8
20190519061430 66 108 1.0 7.0 0.00 0.00 0.00 92 1015.8
20190519060921 66 111 1.0 7.0 0.00 0.00 0.00 91 1015.7
20190519060420 66 159 1.0 6.0 0.00 0.00 0.00 91 1015.7
20190519055922 66 128 1.0 4.0 0.00 0.00 0.00 91 1015.7
20190519055444 66 120 1.0 5.0 0.00 0.00 0.00 91 1015.7
20190519054937 66 134 1.0 5.0 0.00 0.00 0.00 91 1015.7
20190519054423 66 128 1.0 5.0 0.00 0.00 0.00 91 1015.8
20190519053942 66 117 0.0 7.0 0.00 0.00 0.00 91 1015.8
20190519053445 66 123 1.0 7.0 0.00 0.00 0.00 91 1015.8
20190519052919 66 132 1.0 6.0 0.00 0.00 0.00 91 1015.9
20190519052424 66 134 0.0 5.0 0.00 0.00 0.00 91 1015.9
20190519051916 66 103 1.0 5.0 0.00 0.00 0.00 90 1016.0
20190519051413 66 166 0.0 5.0 0.00 0.00 0.00 90 1016.0
20190519050918 66 91 0.0 7.0 0.00 0.00 0.00 90 1016.0
20190519050425 66 139 0.0 7.0 0.00 0.00 0.00 90 1015.9
20190519045944 66 171 0.0 5.0 0.00 0.00 0.00 90 1015.9
20190519045412 66 173 1.0 6.0 0.00 0.00 0.00 90 1015.9
20190519044930 66 162 1.0 6.0 0.00 0.00 0.00 90 1015.9
20190519044415 66 152 1.0 9.0 0.00 0.00 0.00 90 1016.0
20190519043925 66 198 1.0 9.0 0.00 0.00 0.00 90 1016.0
20190519043409 66 170 1.0 7.0 0.00 0.00 0.00 89 1016.1
20190519042900 66 227 2.0 11.0 0.00 0.00 0.00 89 1016.0
20190519041858 66 110 1.0 8.0 0.00 0.00 0.00 89 1016.0
20190519041423 66 192 1.0 8.0 0.00 0.00 0.00 89 1015.9
20190519040912 66 140 1.0 8.0 0.00 0.00 0.00 89 1015.9
20190519040403 66 88 1.0 7.0 0.00 0.00 0.00 89 1015.9
20190519035908 66 147 1.0 6.0 0.00 0.00 0.00 89 1016.0
20190519035350 66 124 1.0 5.0 0.00 0.00 0.00 89 1015.9
20190519034850 66 168 1.0 9.0 0.00 0.00 0.00 88 1015.9
20190519034354 66 323 1.0 9.0 0.00 0.00 0.00 88 1015.9
20190519033855 66 141 1.0 7.0 0.00 0.00 0.00 88 1016.0
20190519033349 66 88 1.0 5.0 0.00 0.00 0.00 88 1015.9
20190519032853 66 129 0.0 5.0 0.00 0.00 0.00 87 1016.0
20190519032400 66 97 1.0 5.0 0.00 0.00 0.00 87 1015.9
20190519031914 66 167 1.0 10.0 0.00 0.00 0.00 87 1015.9
20190519031410 66 165 1.0 10.0 0.00 0.00 0.00 87 1015.9
20190519030901 66 151 1.0 8.0 0.00 0.00 0.00 86 1015.9
20190519030351 66 132 1.0 9.0 0.00 0.00 0.00 86 1015.8
20190519025835 66 150 1.0 9.0 0.00 0.00 0.00 85 1015.9
20190519025412 66 121 2.0 8.0 0.00 0.00 0.00 85 1015.9
20190519024843 67 151 3.0 10.0 0.00 0.00 0.00 85 1015.9
20190519024357 67 159 2.0 10.0 0.00 0.00 0.00 84 1015.8
20190519023851 67 130 2.0 8.0 0.00 0.00 0.00 84 1015.9
20190519023418 67 161 2.0 9.0 0.00 0.00 0.00 84 1016.0
20190519022850 67 125 1.0 9.0 0.00 0.00 0.00 84 1016.0
20190519022403 67 166 2.0 8.0 0.00 0.00 0.00 85 1016.0
20190519021858 67 121 2.0 8.0 0.00 0.00 0.00 85 1016.0
20190519021328 67 142 2.0 9.0 0.00 0.00 0.00 85 1015.9
20190519020855 67 161 1.0 9.0 0.00 0.00 0.00 84 1015.8
20190519020332 67 128 2.0 9.0 0.00 0.00 0.00 84 1015.7
20190519015846 67 119 2.0 11.0 0.00 0.00 0.00 84 1015.6
20190519015352 67 131 1.0 11.0 0.00 0.00 0.00 84 1015.6
20190519014903 68 129 1.0 9.0 0.00 0.00 0.00 84 1015.5
20190519014356 68 119 1.0 7.0 0.00 0.00 0.00 83 1015.5
20190519013849 68 134 1.0 7.0 0.00 0.00 0.00 83 1015.4
20190519013351 68 127 2.0 8.0 0.00 0.00 0.00 82 1015.5
20190519012834 68 92 2.0 10.0 0.00 0.00 0.00 82 1015.5
20190519012330 68 130 3.0 10.0 0.00 0.00 0.00 81 1015.4
20190519011825 68 140 2.0 10.0 0.00 0.00 0.00 81 1015.3
20190519011330 68 105 3.0 10.0 0.00 0.00 0.00 80 1015.3
20190519010852 68 101 3.0 10.0 0.00 0.00 0.00 80 1015.2
20190519010351 68 116 1.0 8.0 0.00 0.00 0.00 79 1015.2
20190519005845 68 132 2.0 7.0 0.00 0.00 0.00 79 1015.2
20190519005320 68 209 1.0 7.0 0.00 0.00 0.00 78 1015.3
20190519004824 68 95 1.0 7.0 0.00 0.00 0.00 78 1015.3
20190519004353 68 154 1.0 10.0 0.00 0.00 0.00 77 1015.3
20190519003829 68 121 2.0 10.0 0.00 0.00 0.00 76 1015.2
20190519003348 68 98 2.0 9.0 0.00 0.00 0.00 76 1015.0
20190519002823 69 176 2.0 9.0 0.00 0.00 0.00 75 1015.0
20190519002345 69 121 2.0 9.0 0.00 0.00 0.00 73 1014.9
20190519001852 69 119 2.0 9.0 0.00 0.00 0.00 72 1015.0
20190519001344 69 146 1.0 9.0 0.00 0.00 0.00 71 1015.1
20190519000829 69 96 1.0 10.0 0.00 0.00 0.00 69 1015.0
20190519000347 69 97 2.0 11.0 0.00 0.00 0.00 68 1014.8
20190518235818 69 150 2.0 11.0 0.00 0.00 0.00 68 1014.8
20190518235333 69 164 2.0 8.0 0.00 0.00 0.00 67 1014.7
20190518234813 69 213 1.0 7.0 0.00 0.00 0.00 67 1014.7
20190518234319 69 298 1.0 9.0 0.00 0.00 0.00 67 1014.6
20190518233801 69 192 1.0 9.0 0.00 0.00 0.00 67 1014.6
20190518233330 69 155 1.0 8.0 0.00 0.00 0.00 67 1014.6
20190518232758 69 132 0.0 5.0 0.00 0.00 0.00 68 1014.5
20190518232317 69 86 1.0 8.0 0.00 0.00 0.00 68 1014.6
20190518231832 69 237 1.0 8.0 0.00 0.00 0.00 68 1014.6
20190518231347 69 153 1.0 9.0 0.00 0.00 0.00 69 1014.5
20190518230829 69 130 2.0 11.0 0.00 0.00 0.00 69 1014.3
20190518230344 70 174 3.0 11.0 0.00 0.00 0.00 69 1014.1
20190518225829 70 219 3.0 9.0 0.00 0.00 0.00 69 1014.0
20190518225334 70 130 2.0 9.0 0.00 0.00 0.00 70 1014.0
20190518224830 70 130 2.0 8.0 0.00 0.00 0.00 69 1014.1
20190518224331 70 152 1.0 7.0 0.00 0.00 0.00 69 1014.2
20190518223807 71 355 1.0 7.0 0.00 0.00 0.00 69 1014.2
20190518223307 71 136 2.0 9.0 0.00 0.00 0.00 68 1014.3
20190518222753 71 105 2.0 10.0 0.00 0.00 0.00 67 1014.2
20190518222326 71 146 2.0 10.0 0.00 0.00 0.00 67 1014.2
20190518221818 71 219 2.0 7.0 0.00 0.00 0.00 66 1014.1
20190518221322 72 61 2.0 11.0 0.00 0.00 0.00 65 1014.1
20190518220835 72 182 2.0 11.0 0.00 0.00 0.00 65 1014.1
20190518220333 72 326 2.0 9.0 0.00 0.00 0.00 65 1014.1
20190518215821 72 138 3.0 11.0 0.00 0.00 0.00 65 1014.0
20190518215310 73 136 4.0 12.0 0.00 0.00 0.00 65 1014.1
20190518214814 73 188 3.0 12.0 0.00 0.00 0.00 64 1014.0
20190518214310 74 169 2.0 12.0 0.00 0.00 0.00 62 1014.0
20190518213755 74 48 2.0 7.0 0.00 0.00 0.00 62 1014.0
20190518213303 75 223 3.0 11.0 0.00 0.00 0.00 62 1014.0
20190518212755 75 108 3.0 11.0 0.00 0.00 0.00 62 1014.0
20190518212328 75 102 2.0 11.0 0.00 0.00 0.00 62 1013.9
20190518211827 75 184 2.0 11.0 0.00 0.00 0.00 62 1014.0
20190518211318 75 112 2.0 11.0 0.00 0.00 0.00 62 1014.0
20190518210820 75 192 3.0 12.0 0.00 0.00 0.00 61 1014.0
20190518210326 76 142 3.0 12.0 0.00 0.00 0.00 61 1014.0
20190518205813 76 169 2.0 9.0 0.00 0.00 0.00 61 1013.9
20190518205253 76 195 2.0 9.0 0.00 0.00 0.00 61 1014.0
20190518204812 76 169 2.0 9.0 0.00 0.00 0.00 61 1013.9
20190518204245 76 96 3.0 10.0 0.00 0.00 0.00 60 1013.8
20190518203803 76 144 3.0 11.0 0.00 0.00 0.00 59 1013.8
20190518203258 76 165 3.0 11.0 0.00 0.00 0.00 59 1013.8
20190518202751 77 156 2.0 11.0 0.00 0.00 0.00 58 1013.8
20190518202243 78 102 1.0 9.0 0.00 0.00 0.00 60 1013.9
20190518201758 77 121 1.0 8.0 0.00 0.00 0.00 62 1013.8
20190518201311 76 155 2.0 11.0 0.00 0.00 0.00 62 1013.9
20190518200802 76 203 3.0 11.0 0.00 0.00 0.00 63 1013.8
20190518200308 76 97 3.0 10.0 0.00 0.00 0.00 62 1013.8
20190518195802 77 119 2.0 10.0 0.00 0.00 0.00 62 1013.9
20190518195300 77 145 2.0 7.0 0.00 0.00 0.00 64 1013.8
20190518194813 77 164 2.0 8.0 0.00 0.00 0.00 62 1013.9
20190518194259 77 150 1.0 8.0 0.00 0.00 0.00 65 1013.9
20190518193817 77 173 2.0 10.0 0.00 0.00 0.00 64 1014.0
20190518193249 77 175 2.0 10.0 0.00 0.00 0.00 64 1014.1
20190518192745 76 94 2.0 9.0 0.00 0.00 0.00 64 1014.1
20190518192257 77 132 2.0 9.0 0.00 0.00 0.00 65 1014.2
20190518191743 76 144 3.0 13.0 0.00 0.00 0.00 65 1014.2
20190518191241 77 330 3.0 13.0 0.00 0.00 0.00 65 1014.3
20190518190734 77 101 2.0 10.0 0.00 0.00 0.00 67 1014.3
20190518190225 77 87 3.0 10.0 0.00 0.00 0.00 67 1014.5
20190518185728 77 93 3.0 12.0 0.00 0.00 0.00 66 1014.5
20190518185238 78 112 2.0 12.0 0.00 0.00 0.00 64 1014.6
20190518184728 78 192 3.0 9.0 0.00 0.00 0.00 63 1014.6
20190518184225 78 153 3.0 9.0 0.00 0.00 0.00 61 1014.7
20190518183742 79 126 3.0 9.0 0.00 0.00 0.00 63 1014.5
20190518183237 79 40 3.0 11.0 0.00 0.00 0.00 63 1014.6
20190518182801 81 130 3.0 11.0 0.00 0.00 0.00 63 1014.8
20190518182246 81 104 3.0 10.0 0.00 0.00 0.00 62 1014.8
20190518181738 81 111 3.0 10.0 0.00 0.00 0.00 62 1014.7
20190518181229 81 119 1.0 7.0 0.00 0.00 0.00 61 1014.8
20190518180726 81 88 1.0 7.0 0.00 0.00 0.00 64 1014.8
20190518180256 80 84 2.0 7.0 0.00 0.00 0.00 64 1014.8
20190518175731 80 87 3.0 8.0 0.00 0.00 0.00 63 1014.7
20190518175213 80 135 3.0 8.0 0.00 0.00 0.00 62 1014.9
20190518174747 81 90 2.0 7.0 0.00 0.00 0.00 63 1014.9
20190518174250 80 132 2.0 7.0 0.00 0.00 0.00 64 1014.9
20190518173752 80 156 1.0 5.0 0.00 0.00 0.00 64 1014.9
20190518173229 80 144 1.0 5.0 0.00 0.00 0.00 65 1014.9
20190518172747 80 115 2.0 6.0 0.00 0.00 0.00 65 1014.9
20190518172239 79 112 2.0 10.0 0.00 0.00 0.00 65 1015.0
20190518171749 79 103 3.0 10.0 0.00 0.00 0.00 66 1015.0
20190518171227 79 105 2.0 7.0 0.00 0.00 0.00 67 1015.0
20190518170752 79 103 2.0 7.0 0.00 0.00 0.00 67 1015.1
20190518170244 78 110 3.0 9.0 0.00 0.00 0.00 67 1015.1
20190518165720 78 127 2.0 9.0 0.00 0.00 0.00 68 1015.2
20190518165217 78 115 2.0 8.0 0.00 0.00 0.00 69 1015.1
20190518164727 78 140 2.0 8.0 0.00 0.00 0.00 69 1015.1
20190518164232 78 89 2.0 8.0 0.00 0.00 0.00 70 1015.1
20190518163738 77 113 2.0 8.0 0.00 0.00 0.00 71 1015.1
20190518163216 77 92 3.0 7.0 0.00 0.00 0.00 69 1015.1
20190518162728 78 140 3.0 9.0 0.00 0.00 0.00 68 1015.1
20190518162244 78 144 2.0 9.0 0.00 0.00 0.00 69 1015.1
20190518161722 78 86 1.0 7.0 0.00 0.00 0.00 71 1015.1
20190518161225 78 148 1.0 5.0 0.00 0.00 0.00 69 1015.2
20190518160723 78 107 1.0 5.0 0.00 0.00 0.00 70 1015.2
20190518160239 77 106 1.0 3.0 0.00 0.00 0.00 71 1015.2
20190518155731 77 106 1.0 3.0 0.00 0.00 0.00 70 1015.2
20190518155247 77 106 1.0 4.0 0.00 0.00 0.00 70 1015.2
20190518154726 77 106 1.0 4.0 0.00 0.00 0.00 71 1015.2
20190518154211 77 106 1.0 4.0 0.00 0.00 0.00 70 1015.1
20190518153704 76 106 0.0 4.0 0.00 0.00 0.00 73 1015.2
20190518153220 76 106 0.0 3.0 0.00 0.00 0.00 74 1015.3
20190518152720 76 106 0.0 2.0 0.00 0.00 0.00 73 1015.3
20190518152218 76 106 0.0 2.0 0.00 0.00 0.00 73 1015.2
20190518151752 76 106 0.0 5.0 0.00 0.00 0.00 73 1015.2
20190518151232 76 106 0.0 5.0 0.00 0.00 0.00 74 1015.1
20190518150755 76 106 0.0 4.0 0.00 0.00 0.00 74 1015.1
20190518150231 76 106 0.0 4.0 0.00 0.00 0.00 74 1015.1
20190518145716 76 106 0.0 3.0 0.00 0.00 0.00 75 1015.1
20190518145219 75 106 0.0 3.0 0.00 0.00 0.00 75 1015.1
20190518144657 75 106 0.0 1.0 0.00 0.00 0.00 75 1015.1
20190518144208 75 106 0.0 0.0 0.00 0.00 0.00 75 1015.1
20190518143658 75 106 0.0 0.0 0.00 0.00 0.00 75 1015.0
20190518143216 75 106 0.0 1.0 0.00 0.00 0.00 75 1015.0
20190518142709 75 106 0.0 1.0 0.00 0.00 0.00 75 1014.9
20190518142201 75 106 0.0 1.0 0.00 0.00 0.00 75 1014.9
20190518141704 75 106 0.0 1.0 0.00 0.00 0.00 75 1015.0
20190518141159 75 106 0.0 3.0 0.00 0.00 0.00 76 1014.9
20190518140700 75 106 0.0 4.0 0.00 0.00 0.00 75 1014.7
20190518140210 74 106 0.0 4.0 0.00 0.00 0.00 75 1014.6
20190518135710 74 106 0.0 7.0 0.00 0.00 0.00 75 1014.6
20190518135158 74 106 0.0 7.0 0.00 0.00 0.00 76 1014.5
20190518134700 74 109 0.0 3.0 0.00 0.00 0.00 76 1014.5
20190518134134 74 109 0.0 3.0 0.00 0.00 0.00 76 1014.4
20190518133636 74 109 0.0 4.0 0.00 0.00 0.00 76 1014.2
20190518133128 74 109 0.0 4.0 0.00 0.00 0.00 77 1014.3
20190518132639 74 121 0.0 4.0 0.00 0.00 0.00 78 1014.3
20190518131653 73 132 0.0 2.0 0.00 0.00 0.00 83 1014.3
20190518131122 73 132 0.0 0.0 0.00 0.00 0.00 82 1014.2
20190518130618 73 132 0.0 1.0 0.00 0.00 0.00 83 1014.3
20190518130130 73 132 0.0 1.0 0.00 0.00 0.00 83 1014.2
20190518125638 72 132 0.0 0.0 0.00 0.00 0.00 84 1014.0
20190518125154 72 132 0.0 0.0 0.00 0.00 0.00 84 1014.0
20190518124649 72 259 0.0 0.0 0.00 0.00 0.00 85 1013.9
20190518124135 72 259 0.0 2.0 0.00 0.00 0.00 86 1013.8
20190518123643 71 259 0.0 2.0 0.00 0.00 0.00 86 1013.7
20190518123200 71 259 0.0 0.0 0.00 0.00 0.00 87 1013.7
20190518122656 71 259 0.0 0.0 0.00 0.00 0.00 88 1013.6
20190518122144 71 259 0.0 0.0 0.00 0.00 0.00 88 1013.4
20190518121637 71 259 0.0 0.0 0.00 0.00 0.00 88 1013.3
20190518121119 70 259 0.0 0.0 0.00 0.00 0.00 88 1013.4
20190518120626 70 259 0.0 0.0 0.00 0.00 0.00 88 1013.4
20190518120112 70 259 0.0 0.0 0.00 0.00 0.00 88 1013.2
20190518115635 70 259 0.0 0.0 0.00 0.00 0.00 88 1013.1
20190518115124 69 259 0.0 0.0 0.00 0.00 0.00 88 1013.0
20190518114646 69 259 0.0 0.0 0.00 0.00 0.00 87 1013.0
20190518114146 69 259 0.0 0.0 0.00 0.00 0.00 87 1013.0
20190518113625 69 259 0.0 0.0 0.00 0.00 0.00 87 1013.0
20190518113143 69 259 0.0 0.0 0.00 0.00 0.00 87 1012.9
20190518112640 69 259 0.0 0.0 0.00 0.00 0.00 87 1013.0
20190518112118 69 259 0.0 0.0 0.00 0.00 0.00 87 1012.8
20190518111615 69 259 0.0 3.0 0.00 0.00 0.00 86 1012.7
20190518111105 68 259 0.0 3.0 0.00 0.00 0.00 86 1012.8
20190518110555 68 260 0.0 0.0 0.00 0.00 0.00 86 1012.7
20190518110105 68 260 0.0 0.0 0.00 0.00 0.00 85 1012.6
20190518105611 68 260 0.0 0.0 0.00 0.00 0.00 85 1012.5
20190518105111 68 260 0.0 0.0 0.00 0.00 0.00 85 1012.4
20190518104613 68 260 0.0 0.0 0.00 0.00 0.00 84 1012.2
20190518104104 69 260 0.0 0.0 0.00 0.00 0.00 84 1012.0
20190518103600 69 260 0.0 0.0 0.00 0.00 0.00 84 1012.0
20190518103118 69 260 0.0 0.0 0.00 0.00 0.00 83 1011.9
20190518102553 69 260 0.0 1.0 0.00 0.00 0.00 83 1011.7
20190518102056 69 260 0.0 1.0 0.00 0.00 0.00 83 1011.7
20190518101552 69 260 0.0 0.0 0.00 0.00 0.00 82 1011.7
20190518101054 69 260 0.0 5.0 0.00 0.00 0.00 82 1011.6
20190518100610 69 260 1.0 5.0 0.00 0.00 0.00 82 1011.6
20190518100135 69 260 1.0 4.0 0.00 0.00 0.00 82 1011.5
20190518095602 69 259 1.0 4.0 0.00 0.00 0.00 82 1011.4
20190518095100 69 267 1.0 4.0 0.00 0.00 0.00 83 1011.4
20190518094612 69 270 1.0 5.0 0.00 0.00 0.00 83 1011.4
20190518094059 68 270 1.0 5.0 0.00 0.00 0.00 84 1011.2
20190518093557 68 275 0.0 3.0 0.00 0.00 0.00 85 1011.2
20190518093117 67 275 0.0 1.0 0.00 0.00 0.00 86 1011.1
20190518092556 67 273 0.0 1.0 0.00 0.00 0.00 86 1011.0
20190518092109 67 273 0.0 0.0 0.00 0.00 0.00 87 1011.0
20190518091621 67 273 0.0 0.0 0.00 0.00 0.00 87 1011.0
20190518091058 67 273 1.0 4.0 0.00 0.00 0.00 87 1010.9